When you browse on this site, cookies collect data to enhance your experience and personalize the content and advertising you see.
Visit our Privacy Policy to learn more. By continuing to use the site, you agree to this use of cookies and data.
  • In Lithuania
  • List of Countries
  • For 7 days
  • Water Temperature
  • Weather Map
  • Weather Widgets
  • user-avatar
    Login

    Hourly Weather Norwich

    Today, 19 August, Monday

    Time Temperature Precipitation Wind Pressure Humidity
    00:00 +14°C° 0 mm 7 mps 753 mmHg 77%
    01:00 +12°C° 0 mm 7 mps 753 mmHg 79%
    02:00 +12°C° 0 mm 7 mps 753 mmHg 81%
    03:00 +12°C° 0 mm 7 mps 753 mmHg 84%
    04:00 +12°C° 0 mm 7 mps 753 mmHg 85%
    05:00 +12°C° 0 mm 7 mps 754 mmHg 86%
    06:00 +13°C° 0 mm 6 mps 754 mmHg 88%
    07:00 +14°C° 0 mm 7 mps 755 mmHg 82%
    08:00 +15°C° 0 mm 7 mps 755 mmHg 77%
    09:00 +17°C° 0 mm 7 mps 755 mmHg 72%
    10:00 +19°C° 0.3 mm 6 mps 756 mmHg 69%
    11:00 +19°C° 0.3 mm 6 mps 756 mmHg 65%
    12:00 +20°C° 0.3 mm 5 mps 756 mmHg 62%
    13:00 +20°C° 0.6 mm 5 mps 756 mmHg 61%
    14:00 +21°C° 0.6 mm 5 mps 757 mmHg 60%
    15:00 +21°C° 0.6 mm 5 mps 757 mmHg 59%
    16:00 +20°C° 0.6 mm 5 mps 757 mmHg 62%
    17:00 +19°C° 0.6 mm 5 mps 757 mmHg 66%
    18:00 +19°C° 0.6 mm 4 mps 757 mmHg 70%
    19:00 +16°C° 0.1 mm 5 mps 758 mmHg 73%
    20:00 +15°C° 0.1 mm 5 mps 758 mmHg 76%
    21:00 +14°C° 0.1 mm 5 mps 759 mmHg 80%
    22:00 +13°C° 0 mm 5 mps 759 mmHg 82%
    23:00 +13°C° 0 mm 5 mps 759 mmHg 83%

    Tomorrow, 20 August, Tuesday

    Time Temperature Precipitation Wind Pressure Humidity
    00:00 +12°C° 0 mm 4 mps 759 mmHg 85%
    01:00 +12°C° 0 mm 4 mps 760 mmHg 87%
    02:00 +12°C° 0 mm 4 mps 760 mmHg 89%
    03:00 +11°C° 0 mm 4 mps 760 mmHg 91%
    04:00 +11°C° 0 mm 4 mps 760 mmHg 90%
    05:00 +11°C° 0 mm 4 mps 761 mmHg 90%
    06:00 +11°C° 0 mm 4 mps 761 mmHg 89%
    07:00 +13°C° 0 mm 4 mps 761 mmHg 82%
    08:00 +14°C° 0 mm 4 mps 762 mmHg 75%
    09:00 +17°C° 0 mm 4 mps 762 mmHg 67%
    10:00 +18°C° 0 mm 4 mps 762 mmHg 63%
    11:00 +18°C° 0 mm 4 mps 763 mmHg 59%
    12:00 +19°C° 0 mm 4 mps 763 mmHg 55%
    13:00 +19°C° 0.1 mm 5 mps 763 mmHg 53%
    14:00 +20°C° 0.1 mm 5 mps 763 mmHg 52%
    15:00 +20°C° 0.1 mm 5 mps 763 mmHg 51%
    16:00 +19°C° 0 mm 4 mps 764 mmHg 56%
    17:00 +19°C° 0 mm 3 mps 764 mmHg 60%
    18:00 +18°C° 0 mm 3 mps 764 mmHg 65%
    19:00 +17°C° 0 mm 3 mps 764 mmHg 69%
    20:00 +16°C° 0 mm 3 mps 765 mmHg 73%
    21:00 +14°C° 0 mm 3 mps 765 mmHg 77%
    22:00 +13°C° 0 mm 3 mps 765 mmHg 78%
    23:00 +13°C° 0 mm 3 mps 765 mmHg 79%

    Day after tomorrow, 21 August, Wednesday

    Time Temperature Precipitation Wind Pressure Humidity
    00:00 +12°C° 0 mm 3 mps 765 mmHg 80%
    01:00 +12°C° 0 mm 3 mps 766 mmHg 82%
    02:00 +12°C° 0 mm 3 mps 766 mmHg 85%
    03:00 +12°C° 0 mm 3 mps 766 mmHg 87%
    04:00 +12°C° 0 mm 3 mps 766 mmHg 87%
    05:00 +12°C° 0 mm 3 mps 766 mmHg 88%
    06:00 +12°C° 0 mm 3 mps 766 mmHg 89%
    07:00 +14°C° 0 mm 3 mps 766 mmHg 84%
    08:00 +15°C° 0 mm 4 mps 766 mmHg 79%
    09:00 +18°C° 0 mm 4 mps 767 mmHg 74%
    10:00 +19°C° 0 mm 4 mps 766 mmHg 69%
    11:00 +20°C° 0 mm 4 mps 766 mmHg 65%
    12:00 +21°C° 0 mm 4 mps 766 mmHg 60%
    13:00 +21°C° 0.1 mm 4 mps 766 mmHg 57%
    14:00 +22°C° 0.1 mm 4 mps 765 mmHg 55%
    15:00 +22°C° 0.1 mm 5 mps 765 mmHg 52%
    16:00 +21°C° 0 mm 4 mps 765 mmHg 57%
    17:00 +20°C° 0 mm 4 mps 765 mmHg 61%
    18:00 +20°C° 0 mm 4 mps 765 mmHg 66%
    19:00 +19°C° 0 mm 4 mps 765 mmHg 68%
    20:00 +18°C° 0 mm 4 mps 765 mmHg 70%
    21:00 +16°C° 0 mm 5 mps 765 mmHg 73%
    22:00 +17°C° 0 mm 4 mps 765 mmHg 74%
    23:00 +15°C° 0 mm 4 mps 765 mmHg 75%

    22 August, Thursday

    Time Temperature Precipitation Wind Pressure Humidity
    00:00 +16°C° 0 mm 3 mps 765 mmHg 77%
    01:00 +14°C° 0 mm 3 mps 764 mmHg 78%
    02:00 +14°C° 0 mm 4 mps 764 mmHg 79%
    03:00 +14°C° 0 mm 4 mps 764 mmHg 80%
    04:00 +14°C° 0 mm 4 mps 764 mmHg 80%
    05:00 +14°C° 0 mm 4 mps 764 mmHg 80%
    06:00 +14°C° 0 mm 4 mps 764 mmHg 80%
    07:00 +15°C° 0 mm 5 mps 764 mmHg 75%
    08:00 +16°C° 0 mm 5 mps 764 mmHg 70%
    09:00 +17°C° 0 mm 5 mps 765 mmHg 65%
    10:00 +19°C° 0 mm 5 mps 764 mmHg 63%
    11:00 +21°C° 0 mm 5 mps 764 mmHg 60%
    12:00 +22°C° 0 mm 5 mps 764 mmHg 58%
    13:00 +22°C° 0 mm 5 mps 764 mmHg 58%
    14:00 +23°C° 0 mm 5 mps 764 mmHg 58%
    15:00 +23°C° 0 mm 4 mps 763 mmHg 57%
    16:00 +22°C° 0 mm 4 mps 763 mmHg 61%
    17:00 +22°C° 0 mm 4 mps 763 mmHg 64%
    18:00 +21°C° 0 mm 4 mps 763 mmHg 67%
    19:00 +20°C° 0 mm 4 mps 764 mmHg 71%
    20:00 +19°C° 0 mm 4 mps 764 mmHg 74%
    21:00 +18°C° 0 mm 4 mps 764 mmHg 77%
    22:00 +18°C° 0 mm 4 mps 764 mmHg 80%
    23:00 +18°C° 0 mm 4 mps 764 mmHg 82%

    23 August, Friday

    Time Temperature Precipitation Wind Pressure Humidity
    00:00 +17°C° 0 mm 4 mps 764 mmHg 85%
    01:00 +17°C° 0 mm 4 mps 763 mmHg 87%
    02:00 +15°C° 0 mm 4 mps 763 mmHg 90%
    03:00 +15°C° 0 mm 4 mps 763 mmHg 93%
    04:00 +15°C° 0 mm 4 mps 763 mmHg 92%
    05:00 +15°C° 0 mm 4 mps 763 mmHg 92%
    06:00 +15°C° 0 mm 4 mps 764 mmHg 91%
    07:00 +17°C° 0 mm 4 mps 764 mmHg 84%
    08:00 +19°C° 0 mm 4 mps 764 mmHg 78%
    09:00 +20°C° 0 mm 4 mps 764 mmHg 71%
    10:00 +21°C° 0 mm 4 mps 764 mmHg 67%
    11:00 +22°C° 0 mm 4 mps 764 mmHg 63%
    12:00 +24°C° 0 mm 3 mps 764 mmHg 60%
    13:00 +24°C° 0 mm 3 mps 763 mmHg 59%
    14:00 +25°C° 0 mm 3 mps 763 mmHg 58%
    15:00 +25°C° 0 mm 3 mps 763 mmHg 58%
    16:00 +24°C° 0 mm 3 mps 763 mmHg 61%
    17:00 +24°C° 0 mm 2 mps 763 mmHg 64%
    18:00 +23°C° 0 mm 2 mps 763 mmHg 67%
    19:00 +21°C° 0 mm 2 mps 763 mmHg 70%
    20:00 +20°C° 0 mm 2 mps 763 mmHg 74%
    21:00 +19°C° 0 mm 2 mps 763 mmHg 77%
    22:00 +19°C° 0 mm 2 mps 762 mmHg 78%
    23:00 +18°C° 0 mm 2 mps 762 mmHg 78%

    24 August, Saturday

    Time Temperature Precipitation Wind Pressure Humidity
    00:00 +18°C° 0 mm 2 mps 762 mmHg 78%
    01:00 +18°C° 0 mm 2 mps 762 mmHg 79%
    02:00 +17°C° 0 mm 2 mps 761 mmHg 80%
    03:00 +18°C° 0 mm 1 mps 761 mmHg 81%
    04:00 +18°C° 0 mm 1 mps 761 mmHg 82%
    05:00 +18°C° 0 mm 1 mps 761 mmHg 83%
    06:00 +19°C° 0 mm 1 mps 761 mmHg 84%
    07:00 +20°C° 0 mm 1 mps 761 mmHg 78%
    08:00 +21°C° 0 mm 1 mps 761 mmHg 73%
    09:00 +23°C° 0 mm 1 mps 761 mmHg 68%
    10:00 +24°C° 0 mm 1 mps 761 mmHg 63%
    11:00 +24°C° 0 mm 2 mps 760 mmHg 59%
    12:00 +25°C° 0 mm 2 mps 760 mmHg 55%
    13:00 +25°C° 0.2 mm 2 mps 760 mmHg 54%
    14:00 +26°C° 0.2 mm 2 mps 759 mmHg 54%
    15:00 +26°C° 0.2 mm 2 mps 759 mmHg 53%
    16:00 +25°C° 0.4 mm 2 mps 759 mmHg 58%
    17:00 +24°C° 0.4 mm 2 mps 759 mmHg 63%
    18:00 +23°C° 0.4 mm 2 mps 759 mmHg 69%
    19:00 +21°C° 0.2 mm 2 mps 759 mmHg 71%
    20:00 +20°C° 0.2 mm 2 mps 759 mmHg 74%
    21:00 +19°C° 0.2 mm 2 mps 759 mmHg 77%
    22:00 +18°C° 0 mm 2 mps 759 mmHg 79%
    23:00 +18°C° 0 mm 2 mps 759 mmHg 82%
    Show more